FW4773 Weather Reports


Display with metric or nautical units.
time (UTC)temp
F
wind
direction
speed
MPH
gust
MPH
rain 1hr
in
rain 24hr
in
rain mn
in
humidity
%
barometer
mb
20260505021529 63 172 0.0 2.0 0.00 0.00 0.00 67 1013.3
20260505020023 64 208 0.0 2.0 0.00 0.00 0.00 65 1013.1
20260505014521 65 172 1.0 2.0 0.00 0.00 0.00 62 1013.1
20260505013020 65 160 0.0 2.0 0.00 0.00 0.00 64 1013.0
20260505011523 65 214 1.0 2.0 0.00 0.00 0.00 63 1012.9
20260505010016 65 181 0.0 2.0 0.00 0.00 0.00 64 1012.6
20260505004520 65 188 1.0 3.0 0.00 0.00 0.00 65 1012.5
20260505003013 65 212 0.0 2.0 0.00 0.00 0.00 65 1012.4
20260505001511 66 166 0.0 1.0 0.00 0.00 0.00 65 1012.5
20260505000019 66 207 0.0 2.0 0.00 0.00 0.00 64 1012.6
20260504234508 67 203 0.0 2.0 0.00 0.00 0.00 62 1012.5
20260504233006 69 207 1.0 2.0 0.00 0.00 0.00 58 1012.3
20260504231503 70 171 2.0 5.0 0.00 0.00 0.00 55 1012.5
20260504230002 70 198 2.0 8.0 0.00 0.00 0.00 54 1012.5
20260504224559 69 202 3.0 9.0 0.00 0.00 0.00 52 1012.3
20260504223102 69 183 7.0 13.0 0.00 0.00 0.00 50 1012.5
20260504221555 70 177 5.0 13.0 0.00 0.00 0.00 48 1012.4
20260504220052 70 188 6.0 13.0 0.00 0.00 0.00 49 1012.4
20260504214601 71 214 6.0 10.0 0.00 0.00 0.00 48 1012.6
20260504213051 71 162 3.0 11.0 0.00 0.00 0.00 48 1012.6
20260504211549 71 192 5.0 14.0 0.00 0.00 0.00 47 1012.6
20260504210043 71 146 3.0 13.0 0.00 0.00 0.00 47 1012.5
20260504204541 72 198 5.0 11.0 0.00 0.00 0.00 44 1012.7
20260504203142 73 212 3.0 8.0 0.00 0.00 0.00 44 1012.4
20260504201539 75 196 3.0 10.0 0.00 0.00 0.00 37 1012.7
20260504200032 75 179 3.0 6.0 0.00 0.00 0.00 37 1012.9
20260504194531 75 220 4.0 7.0 0.00 0.00 0.00 37 1013.0
20260504193026 74 217 1.0 9.0 0.00 0.00 0.00 38 1013.3
20260504191525 74 166 2.0 10.0 0.00 0.00 0.00 39 1013.5
20260504190020 73 206 1.0 6.0 0.00 0.00 0.00 41 1013.7
20260504184519 73 160 3.0 7.0 0.00 0.00 0.00 42 1014.0
20260504183014 73 254 1.0 6.0 0.00 0.00 0.00 40 1014.1
20260504181515 73 181 2.0 6.0 0.00 0.00 0.00 41 1014.4
20260504180009 72 231 3.0 8.0 0.00 0.00 0.00 38 1014.4
20260504174505 72 205 2.0 12.0 0.00 0.00 0.00 37 1014.5
20260504173002 72 356 2.0 10.0 0.00 0.00 0.00 38 1014.8
20260504171610 71 212 3.0 7.0 0.00 0.00 0.00 39 1015.0
20260504081547 53 203 2.0 5.0 0.00 0.00 0.00 62 1017.7
20260504050008 48 307 0.0 0.0 0.00 0.00 0.00 64 1018.0
20260504044505 48 307 0.0 0.0 0.00 0.00 0.00 64 1018.0
20260504043003 47 307 0.0 0.0 0.00 0.00 0.00 66 1018.1
20260504041557 48 307 0.0 0.0 0.00 0.00 0.00 63 1018.1
20260504040054 48 307 0.0 0.0 0.00 0.00 0.00 63 1018.1
20260504034552 46 307 0.0 0.0 0.00 0.00 0.00 66 1017.9
20260504033057 44 307 0.0 0.0 0.00 0.00 0.00 72 1017.9
20260504031559 44 307 0.0 0.0 0.00 0.00 0.00 76 1017.7
20260504030049 44 307 0.0 0.0 0.00 0.00 0.00 78 1017.6
20260504024556 44 307 0.0 0.0 0.00 0.00 0.00 75 1017.6
20260504023045 45 307 0.0 0.0 0.00 0.00 0.00 73 1017.6